Location: Lamoura
(46.3958°N, 5.9672°E)
Time: 20:35:41
(UTC+00:00)

Daily predictions for brighter satellites

Satellite Brightness Start Highest point End
(mag) Time Altitude Azimuth Time Altitude Azimuth Time Altitude Azimuth
ATLAS 2AS CENTAUR R/B 4.5 19:58:54 10° NW 20:05:23 28° NNE 20:11:30 10° E
COSMOS 2428 3.9 20:04:50 10° SSE 20:09:08 23° ESE 20:13:27 10° NE
Cosmos 1844 4.1 20:04:17 10° NNW 20:10:01 57° ENE 20:15:37 10° SE
Cosmos 1703 3.8 20:06:53 10° SSE 20:10:31 40° E 20:14:11 10° NNE
Resurs 1-3 4.3 20:06:58 10° S 20:11:17 57° W 20:15:37 10° NNW
Cosmos 2322 4.2 20:06:26 10° S 20:11:41 39° ESE 20:16:58 10° NE
Cosmos 1745 Rocket 4.0 20:05:59 10° S 20:12:09 73° E 20:18:24 10° NNE
MetOp-B 4.3 20:08:06 10° SSE 20:13:24 67° ENE 20:18:44 10° N
SL-08 ROCKET BODY 4.4 20:08:07 10° S 20:14:02 76° E 20:20:06 10° NNE
Cosmos 2263 Rocket 4.1 20:10:47 10° NW 20:15:18 26° WSW 20:19:48 10° SSW
Cosmos 1953 Rocket 4.4 20:13:51 10° SSE 20:17:37 31° E 20:21:26 10° NNE
Cosmos 2237 Rocket 4.1 20:19:36 10° ESE 20:20:31 10° E 20:21:26 10° E
Cosmos 2219 Rocket 3.0 20:16:01 10° SSE 20:20:50 31° ESE 20:25:41 10° NE
ATLAS CENTAUR R/B 2.6 20:17:54 10° NNW 20:21:08 27° NE 20:24:18 10° ESE
ERS-1 Rocket 3.9 20:17:08 10° SE 20:21:39 34° ENE 20:26:11 10° N
Cosmos 1818 3.6 20:16:48 10° SSW 20:22:14 83° SE 20:27:42 10° NE
Cosmos 2360 Rocket 2.2 20:17:35 10° SSW 20:23:14 86° ESE 20:28:56 10° NNE
Cosmos 2333 4.5 20:18:11 10° S 20:23:31 46° ESE 20:28:57 10° NE
USA 215 3.8 20:18:34 10° ENE 20:24:23 33° SE 20:30:09 10° S
SPOT 5 3.9 20:23:18 10° SE 20:27:45 33° ENE 20:32:01 10° N
Atlas Centaur 2 3.9 20:26:53 10° SW 20:30:43 18° S 20:34:39 11° SE
Landsat 7 3.9 20:26:26 10° SSE 20:31:09 68° ENE 20:35:54 10° N
Cosmos 1825 Rocket 3.6 20:28:10 10° S 20:32:34 67° E 20:37:01 10° NNE
Cosmos 2333 Rocket 2.6 20:29:15 10° S 20:34:35 43° ESE 20:39:57 10° NE
CZ-2C R/B 4.1 20:30:36 10° N 20:35:37 40° WNW 20:40:32 10° SW
GEOS 3 Rocket 3.8 20:34:50 10° NE 20:40:09 56° SE 20:45:26 10° SSW
SL-16 R/B 4.1 20:38:41 10° WSW 20:43:49 34° NW 20:49:00 10° NNE
Spot 2 Rocket 3.6 20:39:40 10° SSE 20:44:46 85° WSW 20:49:54 10° NNW
IGS 5A 3.5 20:42:27 10° SSE 20:46:35 84° W 20:50:46 10° NNW
Cosmos 1315 Rocket 3.6 20:42:59 10° N 20:46:50 38° ENE 20:49:46 16° SE
ATLAS 5 CENTAUR R/B 2.0 20:47:42 10° SW 20:51:49 64° NW 20:56:29 10° NE
CARTOSAT-1 3.8 20:49:41 15° SSE 20:53:08 59° ENE 20:57:23 10° N
USA 81 4.2 20:48:47 11° SSE 20:53:43 55° E 20:58:52 10° NNE
Cosmos 2278 Rocket 3.2 20:49:00 10° NNW 20:54:14 37° NE 20:58:50 13° ESE
Cosmos 1844 Rocket 3.2 20:51:04 10° NW 20:56:31 55° WSW 21:01:37 11° S
Cosmos 1709 Rocket 4.1 20:50:47 10° S 20:57:05 88° E 21:03:30 10° N
USA 267 4.0 20:51:09 10° E 20:57:25 50° NNE 21:03:42 10° NW
Meteor 1-11 4.2 20:57:52 10° S 21:03:29 80° E 21:09:12 10° NNE
SPOT 1/Viking Rocket 3.7 21:00:43 12° S 21:05:27 73° WSW 21:10:39 10° NNW
Cosmos-2242 3.8 21:03:27 10° NNW 21:07:39 48° W 21:11:51 10° SSW
Cosmos 1400 Rocket 3.8 21:04:36 10° NNW 21:08:23 42° W 21:12:01 10° SSW
Cosmos 2221 3.2 21:08:35 10° N 21:12:46 42° ENE 21:15:14 21° SE
Cosmos 2184 Rocket 4.4 21:08:52 17° SSE 21:13:28 47° E 21:19:27 10° NNE
Lacrosse 5 rocket 4.1 21:11:28 10° NW 21:14:26 18° N 21:17:19 10° NE
Resurs 01 Rocket 3.9 21:11:54 10° SW 21:15:07 20° W 21:18:21 10° NW
Terra 1.9 21:14:58 20° SSE 21:18:10 68° ENE 21:22:55 10° N
SAR-Lupe-2 4.0 21:15:42 10° N 21:19:15 62° WNW 21:22:48 10° SSW
TSX-5 4.2 21:24:30 10° NNW 21:27:56 48° ENE 21:30:04 24° ESE
Cosmos 2058 3.7 21:27:37 25° SE 21:29:17 36° E 21:33:05 10° NNE
NOSS 3-4 (A) 4.3 21:23:00 10° NW 21:29:45 55° NE 21:36:03 15° ESE
NOSS 3-4 (C) 4.3 21:23:06 10° NW 21:29:52 54° NE 21:36:11 15° ESE
NOSS 3-3 (A) 4.0 21:33:07 10° SW 21:39:00 81° NW 21:45:41 10° NE
NOSS 3-3 (C) 4.0 21:33:14 10° SW 21:39:06 82° NW 21:45:48 10° NE
Cosmos 1825 3.8 21:39:57 19° E 21:40:30 20° E 21:43:16 10° NE
Cosmos 1980 3.8 21:41:49 21° S 21:45:30 55° ESE 21:51:01 10° NE
JB-3 4.2 21:42:43 10° NNE 21:46:33 64° E 21:48:04 34° S
Meteor 2-17 Rocket 4.4 21:43:29 22° S 21:47:33 71° E 21:53:35 10° NNE
Aureole 2 Rocket 4.4 21:46:32 10° NNE 21:48:02 13° ENE 21:48:50 12° ENE
Cosmos 1076 Rocket 3.7 21:47:33 32° SSE 21:49:15 53° E 21:53:26 10° NNE
Nadezhda 3 Rocket 4.2 21:45:20 10° N 21:51:40 63° ENE 21:55:18 26° SSE
COSMOS 2428 3.2 21:47:20 10° SW 21:52:55 61° WNW 21:58:35 10° NNE
Cosmos 2154 Rocket 4.1 21:49:47 25° SSE 21:53:27 61° E 21:59:33 10° NNE
Cosmos 2084 4.1 21:50:04 10° NW 21:54:19 44° WSW 21:56:03 29° S
Cosmos 2151 4.1 21:55:43 26° ESE 21:56:42 28° E 22:00:22 10° NNE
ATLAS 2AS CENTAUR R/B 3.0 21:50:10 10° NW 21:57:48 70° NE 22:02:39 22° SE
DELTA 2 R/B (1) 4.0 21:53:11 10° SW 21:58:15 37° SSE 22:01:15 21° ESE
Cosmos 2074 Rocket 4.1 21:54:31 17° SSW 21:59:24 79° W 22:05:40 10° N
Thor Agena Rocket 4.0 21:54:48 10° NNE 21:59:39 42° E 22:01:29 30° SE
ATLAS CENTAUR R/B 2.2 21:56:44 10° NW 22:00:00 30° WSW 22:00:56 26° SSW
ERS-1 Rocket 4.3 21:56:48 15° SSW 22:00:25 33° W 22:04:59 10° NNW
Cosmos 1869 3.7 21:56:53 10° NNW 22:00:49 58° W 22:02:34 30° SSW
BREEZE-M DEB (TANK) 2.4 21:57:05 10° WNW 22:01:52 55° N 22:03:23 22° E
Genesis I 3.3 22:00:58 41° SSE 22:01:52 52° ESE 22:05:40 10° NE
Cosmos 2237 Rocket 2.2 21:59:40 21° SSW 22:03:30 71° ESE 22:09:11 10° NNE
Cosmos 1842 Rocket 4.3 22:00:10 10° NNW 22:04:20 46° W 22:06:35 24° SSW
Cosmos 2219 Rocket 3.2 21:59:15 10° SW 22:04:36 45° NW 22:09:59 10° NNE
SPOT 5 4.2 22:02:26 16° SSW 22:05:47 33° W 22:10:09 10° NNW
Cosmos 1371 Rocket 4.3 22:01:04 10° NNW 22:06:18 61° ENE 22:08:51 30° SE
USA 215 3.3 22:01:14 10° NE 22:07:49 83° NW 22:14:22 10° WSW
Spot 4 4.2 22:06:50 31° SE 22:08:53 54° ENE 22:13:33 10° N
Cosmos 2344 3.6 22:05:02 18° S 22:10:37 56° ESE 22:18:17 10° NE
Cosmos 158 Rocket 3.7 22:09:32 30° S 22:11:55 74° ESE 22:16:50 10° NNE
Cosmos 1151 Rocket 4.5 22:10:40 10° NNE 22:14:20 26° ENE 22:15:44 22° ESE
Cosmos 2112 Rocket 4.0 22:12:34 28° S 22:15:24 74° ESE 22:20:46 10° NNE
Elektron 1 4.2 22:15:07 31° SW 22:16:36 86° SE 22:21:44 10° NE
CZ-4C R/B 4.5 22:12:24 10° NNW 22:18:13 29° NNE 22:24:50 10° E
Atlas Centaur 2 4.3 22:15:21 10° SW 22:17:13 14° SSW 22:17:13 14° SSW
Cosmos 2333 Rocket 3.8 22:13:45 10° WSW 22:18:56 35° NW 22:24:11 10° NNE
ALOS 2 3.7 22:18:57 26° ESE 22:20:34 35° ENE 22:24:33 10° N
Iridium 2 3.6 22:21:07 10° N 22:24:58 88° E 22:25:48 53° S
Cosmos 1892 3.5 22:26:26 28° SW 22:28:01 45° WNW 22:31:42 10° N
NOSS 0 Rocket 4.3 22:22:37 10° SW 22:28:44 65° WNW 22:34:55 10° NNE
EO 1 Del DPAF 3.1 22:25:34 10° NNE 22:29:19 68° ESE 22:29:55 56° SSE
Cosmos 2056 Rocket 3.6 22:24:43 10° NNW 22:30:10 82° ENE 22:32:26 37° SSE
GP-B 3.8 22:27:52 10° NNE 22:32:03 39° E 22:33:05 34° ESE
Cosmos 1295 Rocket 4.4 22:29:35 29° S 22:32:56 87° W 22:39:05 10° N
Cosmos 1606 3.2 22:32:57 10° N 22:36:45 49° ENE 22:37:25 43° ESE
Cosmos 2278 Rocket 3.0 22:33:07 10° NW 22:38:22 40° WSW 22:40:40 28° SSW
Cosmos 1408 3.0 22:37:57 41° SW 22:38:48 53° W 22:42:19 10° N
USA 267 3.2 22:36:39 29° SE 22:40:16 72° SW 22:46:50 10° NW
Cosmos 962 Rocket 4.5 22:37:13 32° S 22:40:25 85° E 22:46:49 10° N
Cosmos 2297 3.9 22:35:28 10° NNW 22:41:13 68° ENE 22:43:51 32° SE
Cosmos 44 3.1 22:40:50 50° SSE 22:41:26 56° ESE 22:45:46 10° NE
Cosmos 1943 Rocket 3.3 22:36:37 10° NNW 22:41:52 36° NE 22:45:29 18° ESE
Gbstr 26 Del rocket 4.4 22:44:20 21° E 22:44:20 21° E 22:46:04 10° ENE
MOS 1-B Rocket 4.3 22:35:12 10° NNE 22:42:55 85° ESE 22:46:38 29° SSW
Cosmos 1680 Rocket 4.0 22:39:45 19° SW 22:43:31 58° WNW 22:48:47 10° NNE
SL-16 R/B 2.3 22:46:34 38° S 22:48:35 61° ESE 22:54:11 10° NNE
Cosmos 371 Rocket 3.6 22:44:48 10° NNW 22:49:37 57° ENE 22:51:21 36° SE
CREW DRAGON DEMO-1 DEB 3.1 22:53:16 65° NNW 22:53:18 65° NNW 22:56:21 10° ENE
APEX 4.0 22:51:31 10° N 22:53:52 29° NE 22:53:52 29° NE
Lacrosse 5 rocket 3.3 22:51:15 10° NW 22:54:42 26° NNE 22:58:00 10° ENE
Terra 4.1 22:53:51 11° WSW 22:56:24 15° W 22:59:09 10° NW
Cosmos 1452 Rocket 4.0 22:51:55 10° NNW 22:57:05 52° ENE 22:59:20 31° ESE
Cosmos 1515 Rocket 4.3 22:54:54 10° N 22:59:03 42° ENE 23:00:08 35° ESE
IRIDIUM 114 4.3 22:59:06 43° SSE 23:00:48 72° E 23:06:02 10° N
Cosmos 1766 Rocket 3.5 23:01:32 53° S 23:02:33 89° W 23:06:59 10° N
Cosmos 1328 Rocket 3.4 23:00:55 10° N 23:05:15 81° E 23:06:06 57° SSE
Okean 3 Rocket 3.7 23:07:35 45° SW 23:08:49 67° W 23:13:15 10° N
IRIDIUM 103 4.2 23:08:14 44° S 23:09:56 86° E 23:15:11 10° N
Meteor 2-3 Rocket 3.7 23:12:54 41° SSE 23:14:51 70° E 23:20:32 10° NNE
Cosmos 1340 2.4 23:15:33 77° SSE 23:15:46 82° E 23:19:33 10° NNE
Cosmos 1825 3.6 23:14:44 26° WSW 23:15:48 31° WNW 23:19:14 10° N
Cosmos 864 Rocket 4.4 23:16:18 38° S 23:18:55 86° E 23:25:16 10° N
Cosmos 2228 Rocket 4.1 23:15:44 10° N 23:20:04 40° ENE 23:21:26 32° ESE
Cosmos 2218 Rocket 4.0 23:17:43 36° S 23:20:31 86° W 23:26:52 10° N
NOSS 3-4 (A) 4.4 23:14:03 10° NW 23:20:40 43° WSW 23:23:28 32° SSW
NOSS 3-4 (C) 4.4 23:14:09 10° NW 23:20:47 43° WSW 23:23:36 32° SSW
Aureole 2 Rocket 3.8 23:19:08 10° NW 23:20:49 25° WNW 23:20:49 25° WNW
Cosmos 2366 rocket 4.0 23:21:57 37° SSW 23:24:44 84° W 23:31:08 10° N
Meteor 1-26 Rocket 4.3 23:20:06 10° NNW 23:26:09 89° WSW 23:28:23 41° S
IRIDIUM 106 4.5 23:26:31 41° SSW 23:28:16 67° W 23:33:30 10° N
Cosmos 1743 Rocket 3.7 23:29:40 49° SE 23:30:19 55° E 23:34:34 10° NNE
Cosmos 2369 Rocket 2.6 23:24:52 10° NNW 23:30:23 57° ENE 23:33:18 27° SE
SL-4 R/B 3.7 23:33:31 15° NNW 23:33:31 15° NNW 23:33:58 10° NNW
Cosmos 44 Rocket 4.5 23:32:07 25° ESE 23:32:07 25° ESE 23:35:56 10° ENE
Cosmos 1821 Rocket 4.4 23:30:57 33° SE 23:33:18 49° E 23:39:08 10° NNE
Cosmos 304 Rocket 3.9 23:28:40 10° NNW 23:33:31 70° ENE 23:35:00 43° SE
YAOGAN 11 4.1 23:33:15 52° SE 23:34:14 75° ENE 23:38:40 10° N
Helios 1A 2.8 23:34:08 64° S 23:34:46 87° WSW 23:38:56 10° NNW
Cosmos 1933 3.8 23:31:17 10° NNW 23:35:09 46° W 23:35:33 44° WSW
COSMOS 2455 2.8 23:33:07 10° NNW 23:39:11 87° WSW 23:41:47 36° SSE
Cosmos 2237 Rocket 4.2 23:43:35 10° W 23:48:07 24° NW 23:52:41 10° N
ATLAS 2AS CENTAUR R/B 3.7 23:41:57 10° NW 23:48:09 30° WSW 23:50:03 26° SW
Cosmos 1812 3.9 23:47:00 10° N 23:50:32 33° ENE 23:51:25 29° ESE
Cosmos 1151 Rocket 4.1 23:48:05 10° NNW 23:51:53 30° W 23:52:34 29° WSW
Cosmos 1782 2.7 23:48:48 10° NNW 23:52:45 70° W 23:53:04 66° SW
Cosmos 1408 Rocket 4.3 23:52:07 36° WSW 23:53:14 44° WNW 23:57:29 10° N
CZ-2D R/B 4.3 23:51:54 10° NE 23:54:48 15° E 23:57:20 11° ESE
